Weather History for KDYT - May, 2013

Change the Weather History Date:

Saturday, May 25, 2013

  Actual Average Record
Temperature  
Mean Temperature 42 °F -  
Max Temperature 44 °F 57 °F 84 °F (2014)
Min Temperature 39 °F 41 °F 31 °F (1955)
Degree Days  
Heating Degree Days 24    
Moisture  
Dew Point 36 °F    
Average Humidity 84    
Maximum Humidity 93    
Minimum Humidity 71    
Precipitation  
Precipitation 0.00 in - - ()
Sea Level Pressure  
Sea Level Pressure 30.34 in    
Wind  
Wind Speed 7 mph (NE)    
Max Wind Speed 12 mph    
Max Gust Speed -    
Visibility 10 miles    
Events Rain    
Averages and records for this station are not official NWS values.
T = Trace of Precipitation, MM = Missing Value Source: NWS Daily Summary

Daily Weather History Graph

Daily Weather History Graph

Search for Another Location

Airport or City:

Trip Planner

Search our weather history database for the weather conditions in past years. The results will help you decide how hot, cold, wet, or windy it might be!

Date:

Astronomy

May. 25, 2013 Rise Set
Actual Time 5:23 AM CDT 8:47 PM CDT
Civil Twilight 4:45 AM CDT 9:25 PM CDT
Nautical Twilight 3:56 AM CDT 10:14 PM CDT
Astronomical Twilight 2:53 AM CDT 11:18 PM CDT
Moon 9:35 PM CDT (5/25) 5:51 AM CDT (5/25)
Length of Visible Light 16h 39m
Length of Day
15h 24m
Full, 100% of the Moon is Illuminated
May 25
Full
May 31
Last Quarter
Jun 8
New
Jun 16
First Quarter
Jun 23
Full

Hourly Weather History & Observations

Time (CDT) Temp. Windchill Dew Point Humidity Pressure Visibility Wind Dir Wind Speed Gust Speed Precip Events Conditions
12:13 AM 39.2 °F 34.2 °F 35.6 °F 87% 30.31 in 10.0 mi ENE 6.9 mph - N/A   Clear
12:33 AM 39.2 °F 33.6 °F 35.6 °F 87% 30.31 in 10.0 mi East 8.1 mph - N/A   Clear
12:53 AM 41.0 °F 35.8 °F 35.6 °F 81% 30.31 in 10.0 mi East 8.1 mph - N/A   Clear
1:13 AM 41.0 °F 38.0 °F 35.6 °F 81% 30.30 in 10.0 mi East 4.6 mph - N/A   Scattered Clouds
1:34 AM 39.2 °F 35.9 °F 35.6 °F 87% 30.30 in 10.0 mi NE 4.6 mph - N/A   Mostly Cloudy
1:53 AM 39.2 °F 33.6 °F 35.6 °F 87% 30.30 in 10.0 mi NE 8.1 mph - N/A   Overcast
2:13 AM 39.2 °F 37.0 °F 35.6 °F 87% 30.32 in 10.0 mi North 3.5 mph - N/A   Mostly Cloudy
2:34 AM 39.2 °F 37.0 °F 35.6 °F 87% 30.31 in 10.0 mi ENE 3.5 mph - N/A   Overcast
2:53 AM 39.2 °F 37.0 °F 35.6 °F 87% 30.32 in 10.0 mi NNE 3.5 mph - N/A   Overcast
3:13 AM 39.2 °F 35.9 °F 35.6 °F 87% 30.31 in 10.0 mi NE 4.6 mph - N/A   Light Drizzle
3:34 AM 39.2 °F 32.5 °F 35.6 °F 87% 30.30 in 10.0 mi NE 10.4 mph - N/A Rain Rain
3:53 AM 39.2 °F 32.5 °F 35.6 °F 87% 30.31 in 7.0 mi ENE 10.4 mph - N/A Rain Rain
4:13 AM 39.2 °F 34.2 °F 35.6 °F 87% 30.31 in 10.0 mi NE 6.9 mph - N/A   Light Drizzle
4:34 AM 39.2 °F 35.9 °F 35.6 °F 87% 30.32 in 10.0 mi NE 4.6 mph - N/A   Overcast
4:53 AM 39.2 °F 37.0 °F 35.6 °F 87% 30.33 in 10.0 mi NE 3.5 mph - N/A   Overcast
5:13 AM 39.2 °F 37.0 °F 35.6 °F 87% 30.33 in 10.0 mi NNE 3.5 mph - N/A   Mostly Cloudy
5:34 AM 39.2 °F 35.9 °F 35.6 °F 87% 30.34 in 10.0 mi NNE 4.6 mph - N/A   Scattered Clouds
5:53 AM 39.2 °F 37.0 °F 35.6 °F 87% 30.35 in 10.0 mi NNE 3.5 mph - N/A   Overcast
6:13 AM 39.2 °F 35.9 °F 35.6 °F 87% 30.34 in 10.0 mi NE 4.6 mph - N/A   Overcast
6:34 AM 39.2 °F 35.9 °F 35.6 °F 87% 30.36 in 10.0 mi North 4.6 mph - N/A   Overcast
6:53 AM 39.2 °F 34.2 °F 35.6 °F 87% 30.36 in 10.0 mi NNE 6.9 mph - N/A   Mostly Cloudy
7:13 AM 39.2 °F 37.0 °F 35.6 °F 87% 30.36 in 10.0 mi North 3.5 mph - N/A   Mostly Cloudy
7:33 AM 39.2 °F 34.2 °F 35.6 °F 87% 30.35 in 10.0 mi NNE 6.9 mph - N/A   Mostly Cloudy
7:53 AM 39.2 °F 33.6 °F 37.4 °F 93% 30.35 in 10.0 mi NNE 8.1 mph - N/A   Scattered Clouds
8:14 AM 39.2 °F 35.0 °F 37.4 °F 93% 30.35 in 10.0 mi NNE 5.8 mph - N/A   Mostly Cloudy
8:33 AM 39.2 °F 35.0 °F 37.4 °F 93% 30.35 in 10.0 mi NNE 5.8 mph - N/A   Mostly Cloudy
8:53 AM 39.2 °F 35.0 °F 35.6 °F 87% 30.35 in 10.0 mi NE 5.8 mph - N/A   Scattered Clouds
9:14 AM 41.0 °F 35.2 °F 37.4 °F 87% 30.35 in 10.0 mi ENE 9.2 mph - N/A   Scattered Clouds
9:33 AM 41.0 °F 35.8 °F 37.4 °F 87% 30.35 in 10.0 mi ENE 8.1 mph - N/A   Scattered Clouds
9:53 AM 41.0 °F 35.2 °F 37.4 °F 87% 30.35 in 10.0 mi ENE 9.2 mph - N/A   Scattered Clouds
10:14 AM 41.0 °F 34.7 °F 35.6 °F 81% 30.35 in 10.0 mi ENE 10.4 mph - N/A   Scattered Clouds
10:33 AM 41.0 °F 35.2 °F 37.4 °F 87% 30.36 in 10.0 mi ENE 9.2 mph - N/A   Scattered Clouds
10:53 AM 39.2 °F 32.5 °F 35.6 °F 87% 30.36 in 10.0 mi NE 10.4 mph - N/A   Scattered Clouds
11:13 AM 39.2 °F 33.6 °F 35.6 °F 87% 30.36 in 10.0 mi NE 8.1 mph - N/A   Mostly Cloudy
11:33 AM 41.0 °F 35.8 °F 37.4 °F 87% 30.36 in 10.0 mi NE 8.1 mph - N/A   Scattered Clouds
11:53 AM 41.0 °F 35.8 °F 37.4 °F 87% 30.36 in 10.0 mi ENE 8.1 mph - N/A   Scattered Clouds
12:13 PM 41.0 °F 36.4 °F 37.4 °F 87% 30.36 in 10.0 mi NE 6.9 mph - N/A   Scattered Clouds
12:34 PM 42.8 °F 38.0 °F 37.4 °F 81% 30.36 in 10.0 mi NE 8.1 mph - N/A   Scattered Clouds
12:53 PM 42.8 °F 38.0 °F 37.4 °F 81% 30.36 in 10.0 mi ENE 8.1 mph - N/A   Scattered Clouds
1:13 PM 42.8 °F 38.6 °F 37.4 °F 81% 30.36 in 10.0 mi ENE 6.9 mph - N/A   Scattered Clouds
1:34 PM 42.8 °F 38.0 °F 37.4 °F 81% 30.36 in 10.0 mi East 8.1 mph - N/A   Scattered Clouds
1:53 PM 42.8 °F 38.0 °F 37.4 °F 81% 30.35 in 10.0 mi NE 8.1 mph - N/A   Clear
2:13 PM 42.8 °F 38.0 °F 37.4 °F 81% 30.35 in 10.0 mi NE 8.1 mph - N/A   Clear
2:34 PM 42.8 °F 38.6 °F 37.4 °F 81% 30.35 in 10.0 mi NNE 6.9 mph - N/A   Clear
2:53 PM 42.8 °F 38.6 °F 37.4 °F 81% 30.35 in 10.0 mi NE 6.9 mph - N/A   Clear
3:13 PM 42.8 °F 39.3 °F 37.4 °F 81% 30.35 in 10.0 mi NNE 5.8 mph - N/A   Clear
3:33 PM 42.8 °F 38.6 °F 37.4 °F 81% 30.35 in 10.0 mi NNE 6.9 mph - N/A   Clear
3:53 PM 42.8 °F 40.1 °F 37.4 °F 81% 30.35 in 10.0 mi NNE 4.6 mph - N/A   Clear
4:14 PM 42.8 °F 38.6 °F 37.4 °F 81% 30.35 in 10.0 mi NNE 6.9 mph - N/A   Clear
4:33 PM 42.8 °F 40.1 °F 35.6 °F 76% 30.35 in 10.0 mi NE 4.6 mph - N/A   Clear
4:53 PM 42.8 °F - 35.6 °F 76% 30.34 in 10.0 mi Calm Calm - N/A   Clear
5:14 PM 42.8 °F 41.1 °F 37.4 °F 81% 30.33 in 10.0 mi NE 3.5 mph - N/A   Clear
5:33 PM 44.6 °F 42.2 °F 37.4 °F 76% 30.33 in 10.0 mi NE 4.6 mph - N/A   Scattered Clouds
5:53 PM 42.8 °F - 35.6 °F 76% 30.33 in 10.0 mi Calm Calm - N/A   Mostly Cloudy
6:14 PM 42.8 °F 40.1 °F 35.6 °F 76% 30.33 in 10.0 mi ENE 4.6 mph - N/A   Mostly Cloudy
6:33 PM 44.6 °F 40.2 °F 37.4 °F 76% 30.32 in 10.0 mi ENE 8.1 mph - N/A   Mostly Cloudy
6:53 PM 44.6 °F 39.7 °F 35.6 °F 71% 30.32 in 10.0 mi East 9.2 mph - N/A   Overcast
7:13 PM 42.8 °F 37.5 °F 35.6 °F 76% 30.31 in 10.0 mi East 9.2 mph - N/A   Mostly Cloudy
7:34 PM 42.8 °F 37.5 °F 37.4 °F 81% 30.31 in 10.0 mi East 9.2 mph - N/A   Clear
7:54 PM 42.8 °F 38.0 °F 37.4 °F 81% 30.31 in 10.0 mi East 8.1 mph - N/A   Clear
8:13 PM 42.8 °F 37.0 °F 37.4 °F 81% 30.31 in 10.0 mi East 10.4 mph - N/A   Scattered Clouds
8:34 PM 42.8 °F 37.5 °F 35.6 °F 76% 30.32 in 10.0 mi East 9.2 mph - N/A   Overcast
8:53 PM 42.8 °F 38.0 °F 35.6 °F 76% 30.33 in 10.0 mi East 8.1 mph - N/A   Overcast
9:13 PM 42.8 °F 36.6 °F 35.6 °F 76% 30.32 in 10.0 mi East 11.5 mph - N/A   Mostly Cloudy
9:34 PM 41.0 °F 34.3 °F 35.6 °F 81% 30.32 in 10.0 mi East 11.5 mph - N/A   Scattered Clouds
9:53 PM 41.0 °F 34.3 °F 35.6 °F 81% 30.33 in 10.0 mi East 11.5 mph - N/A   Clear
10:14 PM 41.0 °F 34.7 °F 35.6 °F 81% 30.33 in 10.0 mi ENE 10.4 mph - N/A   Clear
10:34 PM 41.0 °F 35.8 °F 35.6 °F 81% 30.33 in 10.0 mi ENE 8.1 mph - N/A   Clear
10:53 PM 39.2 °F 35.9 °F 35.6 °F 87% 30.33 in 10.0 mi NE 4.6 mph - N/A   Clear
11:14 PM 39.2 °F 35.0 °F 35.6 °F 87% 30.33 in 10.0 mi NNE 5.8 mph - N/A   Clear
11:34 PM 39.2 °F 35.0 °F 35.6 °F 87% 30.33 in 10.0 mi NE 5.8 mph - N/A   Clear
11:53 PM 39.2 °F 37.0 °F 35.6 °F 87% 30.33 in 10.0 mi ENE 3.5 mph - N/A   Clear